[[{"header":{"parameterUnit":"m.s-1","parameterCategory":1,"la1":30.2991,"la2":30.254,"lo1":-89.0895,"lo2":-89.0444,"dy":0.0017,"dx":0.0017,"nx":28,"ny":28,"refTime":"2024-08-16T03:00:00:Z","depth":0,"parameterNumber":2,"parameterNumberName":"U-component_of_WINDS"},"data":[0,0,0,0,0,0,0,0,0,0,0,0,0,0,0,0,0,0,0,0,0,0,0,0,0,0,0,0,0,0,0,0,0,0,0,0,0,0,0,0,0,0,0,0,0,0,0,0,0,0,0,0,0,0,0,0,0,0,-1.2798,-1.2798,0,-1.2788,-1.2788,-1.2788,-1.2767,-1.2767,-1.2766,-1.2766,-1.2754,-1.2754,-1.2754,0,0,0,0,0,0,0,0,0,0,0,0,0,-1.2802,-1.2802,-1.2798,-1.2798,-1.2798,-1.2788,-1.2788,-1.2787,-1.2767,-1.2767,-1.2766,-1.2766,-1.2754,-1.2754,-1.2754,0,0,0,0,0,0,0,0,0,0,0,0,0,-1.2796,-1.2802,-1.2798,-1.2787,-1.2786,-1.2788,-1.2788,-1.2787,-1.2767,-1.2767,-1.2766,-1.2766,-1.2754,-1.2754,-1.2754,-1.2766,0,0,-1.2754,-1.2755,0,0,0,0,0,0,0,0,-1.2797,-1.2796,-1.2789,-1.2788,-1.2786,-1.2778,-1.2784,-1.278,-1.2768,-1.2774,-1.2766,-1.2765,-1.2763,-1.2762,-1.2761,-1.2766,-1.2765,-1.2755,-1.2755,-1.2755,-1.2755,0,0,0,0,0,0,0,-1.2797,-1.2797,-1.2794,-1.2789,-1.2787,-1.2782,-1.2781,-1.2784,-1.2772,-1.2774,-1.2772,-1.2771,-1.2762,-1.2761,-1.2761,-1.2765,-1.2755,-1.2755,-1.2755,-1.2755,-1.2782,-1.2782,0,0,0,0,0,0,-1.2799,-1.2797,-1.2794,-1.2794,-1.279,-1.2783,-1.2781,-1.2781,-1.2772,-1.277,-1.2772,-1.277,-1.2761,-1.2761,-1.276,-1.2775,-1.2755,-1.2755,-1.2755,-1.2781,-1.2782,-1.2782,0,0,0,0,0,0,-1.2799,-1.2799,-1.2795,-1.2795,-1.2794,-1.2783,-1.2784,-1.2782,-1.2781,-1.277,-1.2768,-1.2773,-1.2761,-1.276,-1.2766,-1.2774,-1.2755,-1.2755,-1.278,-1.2781,-1.2782,-1.2804,0,0,0,0,0,0,-1.28,-1.2799,-1.2804,-1.2795,-1.2794,-1.28,-1.2784,-1.2782,-1.2781,-1.2779,-1.2771,-1.2769,-1.276,-1.2766,-1.2766,-1.2774,-1.2755,-1.2779,-1.2781,-1.2782,-1.2803,-1.2806,-1.2809,0,0,0,0,0,-1.28,-1.281,-1.2804,-1.2804,-1.2799,-1.2801,-1.28,-1.279,-1.2782,-1.2786,-1.278,-1.2769,-1.2774,-1.2766,-1.2766,-1.2775,-1.2779,-1.278,-1.2782,-1.2801,-1.2805,-1.2808,0,0,0,0,0,0,-1.2818,-1.2808,-1.2802,-1.2809,-1.2806,-1.2797,-1.2802,-1.2794,-1.2793,-1.2791,-1.2778,-1.2777,-1.2784,-1.278,-1.2772,-1.2787,-1.2775,-1.2776,-1.279,-1.2793,-1.2796,-1.2797,-1.2755,0,0,0,0,0,-1.2823,-1.2825,-1.2816,-1.2824,-1.2823,-1.2813,-1.2813,-1.2806,-1.2802,-1.2801,-1.2794,-1.2791,-1.2792,-1.2792,-1.2792,-1.2802,-1.2801,-1.2808,-1.2811,-1.2814,-1.2815,-1.2822,-1.2825,-1.2787,-1.2787,-1.2787,0,0,-1.2833,-1.2828,-1.283,-1.2828,-1.2824,-1.2827,-1.2812,-1.2815,-1.2817,-1.2801,-1.2806,-1.2802,-1.2797,-1.2805,-1.2809,-1.2802,-1.2826,-1.2816,-1.2818,-1.2818,-1.2824,-1.2827,-1.283,-1.2788,-1.2788,-1.2788,0,0,-1.2854,-1.285,-1.2856,-1.2854,-1.2849,-1.2843,-1.2845,-1.2838,-1.2835,-1.284,-1.2828,-1.2831,-1.2832,-1.2829,-1.2828,-1.285,-1.2841,-1.2851,-1.2866,-1.2873,-1.2876,-1.2878,-1.2887,-1.289,-1.2852,-1.2852,-1.2852,0,-1.2867,-1.2871,-1.286,-1.2865,-1.2865,-1.2851,-1.2858,-1.2856,-1.2852,-1.2852,-1.2845,-1.2847,-1.2843,-1.2852,-1.2857,-1.2857,-1.2859,-1.2851,-1.2876,-1.2878,-1.2881,-1.2889,-1.2892,-1.2853,-1.2853,-1.2853,-1.2853,0,-1.2888,-1.289,-1.2896,-1.2894,-1.2894,-1.29,-1.2891,-1.2893,-1.2886,-1.2881,-1.2887,-1.2882,-1.2882,-1.2883,-1.2876,-1.2891,-1.2887,-1.2878,-1.2865,-1.2886,-1.2893,-1.2896,-1.2855,-1.2855,-1.2854,-1.2854,0,0,-1.2918,-1.2911,-1.2913,-1.2913,-1.2908,-1.291,-1.2916,-1.2916,-1.2918,-1.2916,-1.2921,-1.2923,-1.2916,-1.2915,-1.2908,-1.2913,-1.2933,-1.2904,-1.2904,-1.291,-1.295,-1.2957,-1.2961,-1.2927,-1.2927,-1.2928,-1.2951,0,-1.2937,-1.2947,-1.2939,-1.295,-1.2953,-1.2941,-1.2946,-1.2944,-1.294,-1.2943,-1.2938,-1.294,-1.2929,-1.2929,-1.2934,-1.2929,-1.2941,-1.2927,-1.2932,-1.2932,-1.2933,-1.2965,-1.2972,-1.2994,-1.2954,-1.2954,-1.2954,0,-1.2961,-1.2961,-1.2973,-1.2969,-1.297,-1.2975,-1.2975,-1.2977,-1.2975,-1.2972,-1.2972,-1.2964,-1.297,-1.2958,-1.2966,-1.2958,-1.2959,-1.2957,-1.2958,-1.2958,-1.2944,-1.2966,-1.3,-1.3004,-1.2959,-1.2958,-1.2958,0,-1.2983,-1.2986,-1.2994,-1.2994,-1.2989,-1.2993,-1.2991,-1.2989,-1.299,-1.299,-1.2991,-1.2992,-1.2993,-1.2994,-1.2987,-1.2979,-1.2997,-1.2984,-1.2995,-1.2995,-1.2999,-1.2999,-1.3035,-1.3,-1.2999,-1.2999,-1.2999,0,-1.3006,-1.3013,-1.3004,-1.3009,-1.3018,-1.3009,-1.3018,-1.3015,-1.3013,-1.3018,-1.3007,-1.3012,-1.3002,-1.3006,-1.3,-1.3009,-1.3009,-1.3007,-1.3005,-1.3008,-1.3008,-1.3009,-1.3007,-1.3,-1.3,-1.3,-1.3,0,-1.3031,-1.3025,-1.3033,-1.3029,-1.3028,-1.3035,-1.3031,-1.3036,-1.3032,-1.3038,-1.3039,-1.3032,-1.3036,-1.3029,-1.3032,-1.3028,-1.3041,-1.3037,-1.3042,-1.3041,-1.3052,-1.3052,-1.309,-1.3095,-1.3056,-1.3057,-1.3057,0,-1.3046,-1.3052,-1.3049,-1.3052,-1.3051,-1.3055,-1.3057,-1.3049,-1.3051,-1.305,-1.3055,-1.3059,-1.3061,-1.3068,-1.3063,-1.3066,-1.3062,-1.3075,-1.3062,-1.3065,-1.3063,-1.3063,-1.3064,-1.3078,-1.3078,-1.3079,-1.3079,0,-1.3074,-1.3071,-1.3074,-1.3077,-1.3079,-1.308,-1.3081,-1.3084,-1.3075,-1.3079,-1.3083,-1.3085,-1.3089,-1.3093,-1.3094,-1.3093,-1.3085,-1.3084,-1.3086,-1.3089,-1.3092,-1.3092,-1.305,-1.3082,-1.3082,-1.3082,-1.3082,-1.3082,-1.3096,-1.3101,-1.31,-1.3104,-1.3104,-1.3105,-1.311,-1.3107,-1.311,-1.3113,-1.3108,-1.3114,-1.3114,-1.3116,-1.3115,-1.312,-1.3114,-1.3118,-1.3119,-1.3121,-1.3123,-1.3092,-1.312,-1.312,-1.312,-1.312,-1.312,0,-1.3124,-1.3123,-1.3127,-1.3128,-1.3132,-1.3125,-1.3126,-1.3129,-1.3135,-1.3135,-1.3138,-1.3144,-1.3148,-1.3144,-1.3148,-1.3153,-1.3149,-1.3154,-1.3154,-1.3154,-1.3127,-1.3125,-1.3157,-1.3157,-1.3157,-1.3157,-1.3157,-1.3157,-1.3139,-1.3148,-1.3145,-1.3155,-1.3154,-1.316,-1.3161,-1.3163,-1.3163,-1.317,-1.3174,-1.3172,-1.3171,-1.3175,-1.3179,-1.3178,-1.318,-1.3186,-1.3184,-1.3159,-1.3155,-1.3152,-1.315,-1.3186,-1.3186,-1.321,-1.321,-1.321]},{"header":{"parameterUnit":"m.s-1","parameterCategory":1,"la1":30.2991,"la2":30.254,"lo1":-89.0895,"lo2":-89.0444,"dy":0.0017,"dx":0.0017,"nx":28,"ny":28,"refTime":"2024-08-16T03:00:00:Z","depth":0,"parameterNumber":3,"parameterNumberName":"V-component_of_WINDS"},"data":[0,0,0,0,0,0,0,0,0,0,0,0,0,0,0,0,0,0,0,0,0,0,0,0,0,0,0,0,0,0,0,0,0,0,0,0,0,0,0,0,0,0,0,0,0,0,0,0,0,0,0,0,0,0,0,0,0,0,3.9837,3.9837,0,3.9804,3.9803,3.9803,3.9805,3.9805,3.9806,3.9806,3.9767,3.9766,3.9764,0,0,0,0,0,0,0,0,0,0,0,0,0,3.99,3.9899,3.9837,3.9837,3.9836,3.9804,3.9803,3.9803,3.9805,3.9805,3.9806,3.9807,3.9767,3.9766,3.9764,0,0,0,0,0,0,0,0,0,0,0,0,0,3.987,3.9898,3.9837,3.9834,3.9833,3.9804,3.9803,3.9803,3.9805,3.9805,3.9806,3.9807,3.9768,3.9766,3.9764,3.9734,0,0,3.9757,3.9756,0,0,0,0,0,0,0,0,3.9872,3.9868,3.9835,3.9834,3.9833,3.9809,3.9811,3.9779,3.9805,3.9815,3.9806,3.9807,3.978,3.9777,3.9769,3.9732,3.9731,3.9756,3.9755,3.9754,3.9753,0,0,0,0,0,0,0,3.9874,3.9869,3.9824,3.9834,3.9833,3.9833,3.9829,3.9805,3.9794,3.9814,3.9815,3.9811,3.978,3.9771,3.9768,3.973,3.9757,3.9754,3.9753,3.9752,3.9669,3.9668,0,0,0,0,0,0,3.9877,3.9871,3.9825,3.9823,3.9855,3.9831,3.9827,3.9816,3.9794,3.9791,3.981,3.9811,3.9774,3.977,3.9766,3.9731,3.9754,3.9752,3.9751,3.967,3.9669,3.9668,0,0,0,0,0,0,3.9878,3.9873,3.9826,3.9847,3.9841,3.9829,3.9817,3.9815,3.9806,3.9791,3.9788,3.9803,3.9775,3.977,3.9743,3.973,3.9751,3.9749,3.9671,3.9669,3.9668,3.966,0,0,0,0,0,0,3.988,3.9874,3.9863,3.9847,3.984,3.9804,3.9816,3.9814,3.9803,3.9804,3.9784,3.9781,3.9775,3.9746,3.9741,3.9727,3.9747,3.9672,3.967,3.9669,3.9661,3.9658,3.9656,0,0,0,0,0,3.9883,3.9861,3.9862,3.9857,3.9826,3.9803,3.9799,3.9794,3.9802,3.9791,3.9781,3.9782,3.9732,3.9743,3.9737,3.9723,3.9673,3.9671,3.9669,3.9662,3.9659,3.9656,0,0,0,0,0,0,3.9873,3.9858,3.986,3.9832,3.982,3.9804,3.9789,3.979,3.9774,3.9775,3.9768,3.9763,3.9736,3.9727,3.9739,3.9693,3.9703,3.97,3.9701,3.9697,3.9695,3.9697,3.9745,0,0,0,0,0,3.9869,3.9852,3.984,3.9816,3.981,3.9801,3.9791,3.9788,3.9773,3.9767,3.9756,3.974,3.9722,3.9709,3.9691,3.966,3.9656,3.9647,3.9645,3.9643,3.9639,3.9623,3.9619,3.9662,3.9662,3.9662,0,0,3.9857,3.9847,3.9837,3.9814,3.9804,3.9786,3.9796,3.9777,3.9763,3.9764,3.9738,3.9729,3.9712,3.9683,3.967,3.9674,3.9627,3.964,3.9639,3.9637,3.9621,3.9617,3.9613,3.966,3.966,3.9661,0,0,3.9828,3.9819,3.98,3.979,3.9775,3.9769,3.9764,3.9749,3.9744,3.9719,3.9719,3.9702,3.967,3.9658,3.9647,3.9616,3.9616,3.961,3.9596,3.958,3.9577,3.9574,3.9562,3.9559,3.9607,3.9607,3.9607,0,3.9816,3.9791,3.9789,3.977,3.976,3.9762,3.9741,3.9731,3.971,3.9703,3.9709,3.9669,3.9657,3.9626,3.9619,3.961,3.9604,3.9611,3.9578,3.9575,3.9572,3.9561,3.9557,3.9606,3.9607,3.9607,3.9607,0,3.9777,3.9759,3.9745,3.9727,3.9715,3.9695,3.9689,3.9678,3.9677,3.967,3.9645,3.9631,3.9611,3.9603,3.9601,3.9572,3.9575,3.958,3.9589,3.9567,3.9557,3.9553,3.9606,3.9606,3.9606,3.9606,0,0,3.9739,3.9722,3.9717,3.9709,3.9694,3.9679,3.966,3.9642,3.9632,3.9618,3.9601,3.9574,3.9579,3.9567,3.9564,3.955,3.9526,3.9556,3.9555,3.955,3.9493,3.949,3.9485,3.9527,3.9526,3.9525,3.9495,0,3.9708,3.9675,3.9673,3.9643,3.9627,3.963,3.9613,3.9601,3.9595,3.958,3.9572,3.9554,3.9561,3.9554,3.9541,3.9532,3.9514,3.9534,3.951,3.9509,3.9513,3.948,3.9475,3.9447,3.9491,3.949,3.9489,0,3.9667,3.9654,3.9623,3.9611,3.9605,3.9589,3.9573,3.9559,3.9546,3.9542,3.953,3.9529,3.9509,3.952,3.9491,3.9505,3.9495,3.9489,3.9488,3.9484,3.9497,3.9475,3.9438,3.9433,3.9483,3.9484,3.9484,0,3.9643,3.9617,3.9596,3.9589,3.9575,3.9564,3.9558,3.9545,3.9535,3.952,3.9514,3.9496,3.9486,3.9473,3.9467,3.9476,3.9438,3.9449,3.9434,3.9434,3.9425,3.9425,3.9385,3.9419,3.942,3.942,3.942,0,3.9608,3.9589,3.9585,3.9571,3.955,3.9548,3.9526,3.952,3.9509,3.9494,3.9495,3.948,3.9474,3.9458,3.9453,3.943,3.9426,3.9422,3.942,3.9421,3.9422,3.9414,3.9415,3.9419,3.9419,3.9419,3.9419,0,3.9576,3.9573,3.955,3.9539,3.9536,3.9521,3.9511,3.9498,3.9493,3.9473,3.9469,3.946,3.9442,3.9436,3.9412,3.9409,3.9382,3.9383,3.9387,3.9387,3.9372,3.9373,3.9324,3.9318,3.9357,3.9357,3.9357,0,3.9554,3.954,3.9529,3.9519,3.9513,3.9498,3.9488,3.9486,3.9475,3.946,3.9448,3.9431,3.9416,3.9386,3.9377,3.936,3.936,3.9344,3.9357,3.9358,3.9359,3.936,3.9358,3.9341,3.9341,3.934,3.934,0,3.9515,3.9515,3.9501,3.9488,3.9477,3.9465,3.9454,3.9446,3.9442,3.9431,3.9413,3.9402,3.938,3.9362,3.9344,3.9336,3.9337,3.9337,3.9332,3.9332,3.9335,3.9333,3.938,3.9337,3.9338,3.9338,3.9338,3.9338,3.9487,3.9475,3.9465,3.9451,3.9443,3.9433,3.942,3.9415,3.9401,3.9384,3.9383,3.9364,3.9352,3.9329,3.932,3.9304,3.9308,3.9302,3.93,3.9298,3.9297,3.9339,3.9301,3.9301,3.9301,3.9301,3.9301,0,3.9448,3.9442,3.9429,3.9415,3.9404,3.9408,3.9397,3.9386,3.937,3.9359,3.9346,3.9326,3.9309,3.93,3.9283,3.9272,3.9272,3.9267,3.9268,3.9266,3.9294,3.93,3.9268,3.9268,3.9268,3.9268,3.9268,3.9268,3.9426,3.9405,3.9404,3.938,3.9374,3.9357,3.935,3.9341,3.9333,3.9311,3.9298,3.9293,3.9283,3.9265,3.925,3.9247,3.9241,3.9236,3.9234,3.926,3.9264,3.9267,3.9272,3.9234,3.9234,3.9206,3.9206,3.9206]}]]